Location: Arcusa
(42.3167°N, 0.0833°W)
Time: 09:36:14
(UTC+00:00)

NOSS 3-2 (A) - Pass Details

Date: 25 January 2020
Orbit: 810 x 1398 km, 63.4° (Epoch: 10 February)

Event Time Altitude Azimuth Distance (km) Brightness Sun altitude
Exits shadow 04:13:06 65° 9° (N) 1,385 4.1 -34.6°
Maximum altitude 04:14:04 71° 52° (NE) 1,350 4.1 -34.4°
Drops below altitude 10° 04:22:29 10° 136° (SE) 3,428 6.7 -32.9°
Sets 04:25:29 0° 139° (SE) 4,429 7.4 -32.3°
